Location: Barrio Las Umbrías
(40.4173°N, 4.8685°W)
Time: 12:23:34
(UTC+00:00)

Genesis I - Pass Details

Date: 17 August 2022
Orbit: 464 x 539 km, 64.5° (Epoch: 27 September)

Event Time Altitude Azimuth Distance (km) Brightness Sun altitude
Rises 19:33:00 0° 217° (SW) 2,643 7.0 -4.2°
Reaches altitude 10° 19:35:10 10° 220° (SW) 1,769 6.2 -4.6°
Maximum altitude 19:39:08 68° 304° (NW) 578 3.7 -5.3°
Drops below altitude 10° 19:43:11 10° 28° (NNE) 1,807 5.9 -6.0°
Sets 19:45:25 0° 31° (NNE) 2,706 6.8 -6.4°
